Teller, AK

1:47 AM AKST on November 19, 2017 (GMT -0900)
Teller

Weather History for PATE - May, 2014

Change the Weather History Date:

Saturday, May 3, 2014

  Actual Average (PATC) Record (PATC)
Temperature  
Mean Temperature 34 °F -  
Max Temperature 37 °F 27 °F 48 °F (2003)
Min Temperature 30 °F 18 °F 0 °F (1998)
Degree Days  
Heating Degree Days 32    
Moisture  
Dew Point 31 °F    
Average Humidity 96    
Maximum Humidity 100    
Minimum Humidity 87    
Precipitation  
Precipitation 0.00 in - - ()
Sea Level Pressure  
Sea Level Pressure 30.14 in    
Wind  
Wind Speed 11 mph (SSW)    
Max Wind Speed 24 mph    
Max Gust Speed 28 mph    
Visibility 4 miles    
Events Fog , Rain , Snow    
Averages and records for this station are not official NWS values.
T = Trace of Precipitation, MM = Missing Value Source: NWS Daily Summary

Daily Weather History Graph

Daily Weather History Graph

Search for Another Location

Airport or City:

Trip Planner

Search our weather history database for the weather conditions in past years. The results will help you decide how hot, cold, wet, or windy it might be!

Date:

Astronomy

May. 03, 2014 Rise Set
Actual Time 6:20 AM AKDT 11:46 PM AKDT
Civil Twilight 5:00 AM AKDT 1:09 AM AKDT
Nautical Twilight Sun does not rise Sun does not rise
Astronomical Twilight Sun does not rise Sun does not rise
Moon 9:40 AM AKDT (5/3) 3:38 AM AKDT (5/3)
Length of Visible Light 20h 09m
Length of Day
17h 25m
Waxing Crescent, 21% of the Moon is Illuminated
May 3
Waxing Crescent
May 6
First Quarter
May 14
Full
May 21
Last Quarter
May 28
New

Hourly Weather History & Observations

Time (AKDT) Temp. Windchill Dew Point Humidity Pressure Visibility Wind Dir Wind Speed Gust Speed Precip Events Conditions
12:22 AM 33.8 °F 29.6 °F 32.0 °F 93% 30.31 in 1.8 mi East 4.6 mph - N/A   Overcast
12:24 AM 33.8 °F 28.6 °F 32.0 °F 93% 30.30 in 0.5 mi East 5.8 mph - N/A Fog Fog
12:29 AM 33.8 °F 29.6 °F 30.2 °F 87% 30.30 in 0.2 mi East 4.6 mph - N/A Fog Fog
12:35 AM 32.0 °F 27.5 °F 30.2 °F 93% 30.30 in 0.2 mi East 4.6 mph - N/A Fog Fog
12:58 AM 32.0 °F 25.6 °F 30.9 °F 96% 30.35 in 0.2 mi ESE 6.9 mph - N/A Fog Fog
1:02 AM 32.0 °F 25.6 °F 30.2 °F 93% 30.30 in 0.2 mi ESE 6.9 mph - N/A Fog Fog
1:07 AM 32.0 °F 24.8 °F 30.2 °F 93% 30.30 in 0.5 mi ESE 8.1 mph - N/A Fog Fog
1:09 AM 32.0 °F 24.2 °F 30.2 °F 93% 30.30 in 1.0 mi SE 9.2 mph - N/A   Overcast
1:11 AM 32.0 °F 24.2 °F 30.2 °F 93% 30.29 in 2.0 mi SE 9.2 mph - N/A   Overcast
1:14 AM 32.0 °F 24.2 °F 30.2 °F 93% 30.29 in 4.0 mi ESE 9.2 mph - N/A   Overcast
1:31 AM 30.2 °F 23.4 °F 30.2 °F 100% 30.29 in 4.0 mi ESE 6.9 mph - N/A   Overcast
1:43 AM 32.0 °F 26.4 °F 30.2 °F 93% 30.29 in 9.0 mi ESE 5.8 mph - N/A   Overcast
1:49 AM 32.0 °F 25.6 °F 30.2 °F 93% 30.29 in 1.2 mi ESE 6.9 mph - N/A   Overcast
1:51 AM 32.0 °F 26.4 °F 30.2 °F 93% 30.29 in 0.8 mi ESE 5.8 mph - N/A   Overcast
1:56 AM 32.0 °F 26.4 °F 30.2 °F 93% 30.28 in 0.5 mi ESE 5.8 mph - N/A Fog Fog
1:58 AM 32.0 °F 25.6 °F 30.9 °F 96% 30.32 in 0.5 mi ESE 6.9 mph - N/A Fog Fog
2:01 AM 32.0 °F 26.4 °F 30.2 °F 93% 30.28 in 1.0 mi ESE 5.8 mph - N/A   Overcast
2:05 AM 32.0 °F 27.5 °F 30.2 °F 93% 30.28 in 2.5 mi East 4.6 mph - N/A   Overcast
2:09 AM 32.0 °F 28.7 °F 32.0 °F 100% 30.28 in 10.0 mi East 3.5 mph - N/A   Overcast
2:41 AM 33.8 °F 30.8 °F 32.0 °F 93% 30.27 in 1.5 mi NE 3.5 mph - N/A   Overcast
2:46 AM 33.8 °F - 32.0 °F 93% 30.27 in 0.8 mi Calm Calm - N/A   Overcast
2:50 AM 33.8 °F - 32.0 °F 93% 30.26 in 1.2 mi Calm Calm - N/A   Overcast
2:55 AM 33.8 °F - 32.0 °F 93% 30.26 in 4.0 mi Calm Calm - N/A   Overcast
2:58 AM 33.1 °F - 32.0 °F 96% 30.30 in 10.0 mi Calm Calm - N/A   Overcast
3:47 AM 33.8 °F - 33.8 °F 100% 30.24 in 10.0 mi Calm Calm - N/A   Overcast
3:58 AM 34.0 °F 28.0 °F 34.0 °F 100% 30.27 in 10.0 mi South 6.9 mph - N/A   Overcast
4:27 AM 35.6 °F 30.7 °F 35.6 °F 100% 30.22 in 10.0 mi Variable 5.8 mph - N/A   Overcast
4:32 AM 35.6 °F 31.7 °F 35.6 °F 100% 30.22 in 10.0 mi West 4.6 mph - N/A   Overcast
4:39 AM 35.6 °F 31.7 °F 33.8 °F 93% 30.22 in 10.0 mi West 4.6 mph - N/A   Overcast
4:58 AM 35.1 °F 26.4 °F 35.1 °F 100% 30.26 in 10.0 mi South 12.7 mph - N/A   Overcast
5:04 AM 35.6 °F 28.6 °F 35.6 °F 100% 30.21 in 10.0 mi South 9.2 mph - N/A   Overcast
5:28 AM 35.6 °F 29.9 °F 35.6 °F 100% 30.21 in 10.0 mi SSE 6.9 mph - N/A   Overcast
5:48 AM 37.4 °F 28.9 °F 35.6 °F 93% 30.19 in 10.0 mi South 13.8 mph - N/A   Overcast
5:58 AM 36.0 °F 28.5 °F 35.1 °F 97% 30.23 in 10.0 mi South 10.4 mph - N/A   Overcast
6:06 AM 35.6 °F 28.6 °F 35.6 °F 100% 30.19 in 10.0 mi South 9.2 mph - N/A   Overcast
6:58 AM 37.0 °F 26.2 °F 36.0 °F 96% 30.19 in 10.0 mi South 21.9 mph - N/A   Overcast
7:58 AM 37.0 °F 26.2 °F 36.0 °F 96% 30.17 in 7.0 mi South 21.9 mph - N/A   Overcast
8:38 AM 35.6 °F 25.9 °F 35.6 °F 100% 30.12 in 2.0 mi South 16.1 mph - N/A   Overcast
8:51 AM 35.6 °F 26.2 °F 35.6 °F 100% 30.11 in 4.0 mi South 15.0 mph - 0.00 in Rain Light Rain
8:58 AM 36.0 °F 26.3 °F 35.1 °F 97% 30.15 in 9.0 mi South 16.1 mph - 0.00 in Rain Light Rain
9:10 AM 35.6 °F 26.6 °F 35.6 °F 100% 30.11 in 10.0 mi SSW 13.8 mph 20.7 mph 0.00 in Rain Light Rain
9:58 AM 37.0 °F 27.4 °F 35.1 °F 93% 30.14 in 10.0 mi South 17.3 mph - 0.00 in Rain Light Rain
10:26 AM 35.6 °F 25.5 °F 35.6 °F 100% 30.10 in 10.0 mi SSW 17.3 mph - 0.00 in Rain Light Rain
10:58 AM 36.0 °F 25.0 °F 34.0 °F 93% 30.14 in 10.0 mi SSW 20.7 mph - 0.00 in Rain Light Rain
11:04 AM 35.6 °F 24.2 °F 33.8 °F 93% 30.09 in 10.0 mi SSW 21.9 mph - 0.00 in Rain Light Rain
11:58 AM 34.0 °F 22.1 °F 33.1 °F 96% 30.12 in 9.0 mi SSW 21.9 mph 25.3 mph 0.00 in Snow Light Snow
12:58 PM 34.0 °F 22.1 °F 32.0 °F 92% 30.12 in 3.0 mi SW 21.9 mph - 0.00 in Snow Light Snow
1:11 PM 33.8 °F 21.9 °F 32.0 °F 93% 30.07 in 3.0 mi SW 21.9 mph 26.5 mph 0.00 in Snow Light Snow
1:16 PM 33.8 °F 21.3 °F 30.2 °F 87% 30.07 in 2.5 mi SW 24.2 mph - 0.00 in Snow Light Snow
1:27 PM 33.8 °F 22.5 °F 32.0 °F 93% 30.07 in 1.8 mi SW 19.6 mph - 0.00 in Snow Light Snow
1:49 PM 32.0 °F 20.1 °F 30.2 °F 93% 30.08 in 1.0 mi WSW 19.6 mph - 0.00 in Snow Light Snow
1:58 PM 32.0 °F 19.2 °F 30.0 °F 92% 30.12 in 1.0 mi SW 23.0 mph - 0.00 in Snow Light Snow
2:11 PM 30.2 °F 17.8 °F 30.2 °F 100% 30.07 in 1.2 mi SW 19.6 mph - 0.00 in Snow Light Snow
2:49 PM 30.2 °F 17.1 °F 30.2 °F 100% 30.06 in 2.0 mi SW 21.9 mph - 0.00 in Snow Light Snow
2:58 PM 30.9 °F 18.1 °F 30.0 °F 96% 30.09 in 1.8 mi SW 21.9 mph 27.6 mph 0.00 in Snow Light Snow
3:13 PM 30.2 °F 16.8 °F 30.2 °F 100% 30.05 in 2.0 mi SW 23.0 mph - 0.00 in Snow Light Snow
3:36 PM 30.2 °F 17.4 °F 30.2 °F 100% 30.05 in 2.5 mi SW 20.7 mph - 0.00 in Snow Light Snow
3:40 PM 32.0 °F 20.5 °F 30.2 °F 93% 30.05 in 3.0 mi SW 18.4 mph - 0.00 in Snow Light Snow
3:58 PM 32.0 °F 19.8 °F 30.0 °F 92% 30.09 in 8.0 mi SW 20.7 mph - 0.00 in Snow Light Snow
4:21 PM 32.0 °F 20.1 °F 30.2 °F 93% 30.05 in 9.0 mi SW 19.6 mph - 0.00 in   Overcast
4:58 PM 33.1 °F 20.6 °F 30.0 °F 89% 30.07 in 3.0 mi SW 23.0 mph 26.5 mph 0.00 in Snow Light Snow
5:11 PM 32.0 °F 19.2 °F 30.2 °F 93% 30.03 in 3.0 mi SW 23.0 mph - 0.00 in Snow Light Snow
5:20 PM 32.0 °F 19.2 °F 30.2 °F 93% 30.03 in 1.8 mi SW 23.0 mph - 0.00 in Snow Light Snow
5:32 PM 32.0 °F 20.5 °F 30.2 °F 93% 30.03 in 1.2 mi SW 18.4 mph - 0.00 in Snow Light Snow
5:58 PM 32.0 °F 19.8 °F 30.0 °F 92% 30.06 in 2.0 mi SW 20.7 mph - 0.00 in Snow Light Snow
6:12 PM 32.0 °F 20.1 °F 30.2 °F 93% 30.03 in 3.0 mi WSW 19.6 mph - 0.00 in Snow Light Snow
6:39 PM 30.2 °F 16.8 °F 30.2 °F 100% 30.02 in 2.5 mi SW 23.0 mph - 0.00 in Snow Light Snow
6:46 PM 30.2 °F 17.4 °F 30.2 °F 100% 30.02 in 3.0 mi SW 20.7 mph - 0.00 in Snow Light Snow
6:58 PM 30.9 °F 18.4 °F 30.0 °F 96% 30.06 in 5.0 mi SW 20.7 mph - 0.00 in Snow Light Snow
7:19 PM 30.2 °F 17.8 °F 28.4 °F 93% 30.01 in 2.0 mi SW 19.6 mph - 0.00 in Snow Light Snow
7:27 PM 30.2 °F 17.8 °F 28.4 °F 93% 30.01 in 2.0 mi SW 19.6 mph - 0.00 in Snow Light Snow
7:33 PM 30.2 °F 18.5 °F 28.4 °F 93% 30.01 in 4.0 mi SW 17.3 mph - 0.00 in Snow Light Snow
7:58 PM 30.9 °F 20.2 °F 30.0 °F 96% 30.05 in 2.0 mi SW 15.0 mph - 0.00 in Snow Light Snow
8:03 PM 30.2 °F 18.1 °F 30.2 °F 100% 30.00 in 1.8 mi SW 18.4 mph - 0.00 in Snow Light Snow
8:09 PM 30.2 °F 17.8 °F 30.2 °F 100% 30.00 in 2.0 mi SW 19.6 mph - 0.00 in Snow Light Snow
8:14 PM 30.2 °F 18.5 °F 30.2 °F 100% 30.00 in 3.0 mi SW 17.3 mph - 0.00 in Snow Light Snow
8:20 PM 30.2 °F 18.5 °F 30.2 °F 100% 30.00 in 1.8 mi SW 17.3 mph - 0.00 in Snow Light Snow
8:33 PM 30.2 °F 18.5 °F 30.2 °F 100% 30.00 in 1.0 mi SW 17.3 mph - 0.00 in Snow Light Snow
8:40 PM 30.2 °F 18.5 °F 30.2 °F 100% 30.00 in 1.2 mi SW 17.3 mph - 0.00 in Snow Light Snow
8:54 PM 30.2 °F 17.8 °F 30.2 °F 100% 29.99 in 2.0 mi SW 19.6 mph - 0.00 in Snow Light Snow
8:58 PM 30.9 °F 19.4 °F 30.0 °F 96% 30.04 in 3.0 mi SW 17.3 mph - 0.00 in Snow Light Snow
9:17 PM 30.2 °F 17.8 °F 30.2 °F 100% 29.99 in 2.5 mi SW 19.6 mph - 0.00 in Snow Light Snow
9:25 PM 30.2 °F 18.1 °F 30.2 °F 100% 29.99 in 4.0 mi SW 18.4 mph - 0.00 in Snow Light Snow
9:48 PM 30.2 °F 17.4 °F 30.2 °F 100% 29.98 in 5.0 mi SW 20.7 mph - 0.00 in Snow Light Snow
9:58 PM 30.0 °F 16.9 °F 28.9 °F 96% 30.02 in 5.0 mi SW 21.9 mph - 0.00 in Snow Light Snow
10:37 PM 30.2 °F 18.1 °F 28.4 °F 93% 29.98 in 2.5 mi SW 18.4 mph - 0.00 in Snow Light Snow
10:45 PM 30.2 °F 17.8 °F 28.4 °F 93% 29.98 in 1.8 mi SW 19.6 mph - 0.00 in Snow Light Snow
10:58 PM 30.0 °F 16.9 °F 28.9 °F 96% 30.02 in 1.5 mi SW 21.9 mph - 0.00 in Snow Light Snow
11:08 PM 30.2 °F 17.4 °F 28.4 °F 93% 29.98 in 2.5 mi SW 20.7 mph - 0.00 in Snow Light Snow
11:13 PM 30.2 °F 17.4 °F 28.4 °F 93% 29.97 in 4.0 mi SW 20.7 mph - 0.00 in Snow Light Snow
11:58 PM 30.0 °F 18.3 °F 28.9 °F 96% 30.01 in 4.0 mi SW 17.3 mph - 0.00 in Snow Light Snow